ETD551 OMAA-OERK

Flight info

Callsign ETD551
Flight time N/A
Altitude 32000
Route ORNEL DCT ELUDA DCT UKRAG DCT RIGIL DCT PEKEM DCT KATIT DCT BOPEK DCT KUTNA/N0450F280 M440 ITULU DCT OEHR DCT SITER DCT PSA DCT AKJ DCT RESAL
Aircraft A321/M-SDE3FGHIRWY/LB1

Departure

Time 2026-04-27 13:43
Airport Zayed International Airport (OMAA)

Arrival

Time N/A
Airport King Khalid International Airport (OERK)
Time Latitude Longitude Altitude Speed Heading
2026-04-27 13:15 24.44593 54.64540 76 ft 0 kts 232°
2026-04-27 13:21 24.44594 54.64540 76 ft 0 kts 232°
2026-04-27 13:28 24.44599 54.64549 66 ft 2 kts 230°
2026-04-27 13:28 24.44610 54.64563 63 ft 2 kts 232°
2026-04-27 13:29 24.44620 54.64577 70 ft 2 kts 231°
2026-04-27 13:29 24.44631 54.64591 65 ft 2 kts 230°
2026-04-27 13:29 24.44641 54.64606 66 ft 2 kts 185°
2026-04-27 13:29 24.44657 54.64603 65 ft 2 kts 166°
2026-04-27 13:30 24.44673 54.64596 67 ft 2 kts 149°
2026-04-27 13:30 24.44687 54.64587 71 ft 2 kts 143°
2026-04-27 13:30 24.44692 54.64583 73 ft 0 kts 142°
2026-04-27 13:34 24.44691 54.64584 72 ft 0 kts 142°
2026-04-27 13:34 24.44683 54.64591 67 ft 4 kts 139°
2026-04-27 13:34 24.44662 54.64614 65 ft 5 kts 130°
2026-04-27 13:35 24.44629 54.64659 73 ft 10 kts 128°
2026-04-27 13:35 24.44575 54.64726 74 ft 13 kts 148°
2026-04-27 13:35 24.44500 54.64693 68 ft 13 kts 220°
2026-04-27 13:35 24.44412 54.64617 73 ft 19 kts 218°
2026-04-27 13:36 24.44309 54.64526 73 ft 18 kts 218°
2026-04-27 13:36 24.44253 54.64416 74 ft 16 kts 240°
2026-04-27 13:36 24.44165 54.64386 73 ft 15 kts 142°
2026-04-27 13:36 24.44085 54.64488 67 ft 20 kts 129°
2026-04-27 13:37 24.44019 54.64579 70 ft 26 kts 128°
2026-04-27 13:37 24.43909 54.64736 71 ft 26 kts 129°
2026-04-27 13:37 24.43800 54.64895 70 ft 26 kts 129°
2026-04-27 13:37 24.43686 54.65050 76 ft 27 kts 127°
2026-04-27 13:38 24.43567 54.65217 65 ft 28 kts 128°
2026-04-27 13:38 24.43452 54.65378 74 ft 26 kts 128°
2026-04-27 13:38 24.43340 54.65536 70 ft 26 kts 128°
2026-04-27 13:38 24.43230 54.65692 71 ft 26 kts 128°
2026-04-27 13:39 24.43120 54.65847 71 ft 26 kts 127°
2026-04-27 13:39 24.43010 54.66000 70 ft 26 kts 128°
2026-04-27 13:39 24.42898 54.66158 72 ft 25 kts 128°
2026-04-27 13:39 24.42882 54.66182 67 ft 4 kts 128°
2026-04-27 13:40 24.42844 54.66235 72 ft 13 kts 127°
2026-04-27 13:40 24.42772 54.66333 69 ft 13 kts 136°
2026-04-27 13:40 24.42698 54.66323 72 ft 11 kts 241°
2026-04-27 13:40 24.42717 54.66248 70 ft 10 kts 299°
2026-04-27 13:41 24.42689 54.66193 71 ft 10 kts 220°
2026-04-27 13:41 24.42622 54.66120 75 ft 16 kts 239°
2026-04-27 13:41 24.42639 54.66053 75 ft 0 kts 308°
2026-04-27 13:41 24.42695 54.65976 71 ft 42 kts 306°
2026-04-27 13:42 24.43015 54.65533 71 ft 104 kts 308°
2026-04-27 13:42 24.43571 54.64751 65 ft 153 kts 308°
2026-04-27 13:42 24.44285 54.63740 307 ft 174 kts 308°
2026-04-27 13:42 24.45024 54.62685 589 ft 177 kts 307°
2026-04-27 13:43 24.45780 54.61579 723 ft 186 kts 309°
2026-04-27 13:43 24.46605 54.60426 895 ft 194 kts 309°
2026-04-27 13:43 24.47420 54.59289 1393 ft 186 kts 310°
2026-04-27 13:43 24.48204 54.58191 1914 ft 179 kts 308°
2026-04-27 13:44 24.49000 54.57171 2305 ft 175 kts 317°
2026-04-27 13:44 24.49827 54.56170 2604 ft 182 kts 311°
2026-04-27 13:44 24.50640 54.55022 2739 ft 198 kts 309°
2026-04-27 13:44 24.51491 54.53764 2857 ft 214 kts 300°
2026-04-27 13:45 24.52384 54.52340 2853 ft 239 kts 301°
2026-04-27 13:45 24.53363 54.50795 3095 ft 251 kts 303°
2026-04-27 13:45 24.54383 54.49209 3534 ft 255 kts 309°
2026-04-27 13:45 24.55431 54.47740 4529 ft 233 kts 310°
2026-04-27 13:46 24.56430 54.46393 5333 ft 224 kts 310°
2026-04-27 13:46 24.57415 54.45068 5933 ft 224 kts 310°
2026-04-27 13:46 24.58394 54.43736 6423 ft 225 kts 309°
2026-04-27 13:46 24.59448 54.42464 6896 ft 227 kts 324°
2026-04-27 13:47 24.60897 54.41790 7365 ft 231 kts 350°
2026-04-27 13:47 24.62518 54.41976 7830 ft 243 kts 18°
2026-04-27 13:47 24.64011 54.42912 8277 ft 252 kts 33°
2026-04-27 13:47 24.65182 54.44395 8735 ft 265 kts 57°
2026-04-27 13:48 24.65741 54.46400 8959 ft 290 kts 84°
2026-04-27 13:48 24.65534 54.48672 9108 ft 310 kts 97°
2026-04-27 13:48 24.65176 54.51048 9458 ft 318 kts 97°
2026-04-27 13:48 24.64806 54.53465 9927 ft 322 kts 97°
2026-04-27 13:49 24.64435 54.55917 10228 ft 333 kts 97°
2026-04-27 13:49 24.64055 54.58490 10343 ft 350 kts 97°
2026-04-27 13:49 24.63660 54.61200 10458 ft 366 kts 97°
2026-04-27 13:49 24.63225 54.64010 10594 ft 382 kts 99°
2026-04-27 13:50 24.62650 54.66917 10727 ft 395 kts 102°
2026-04-27 13:50 24.61704 54.69766 11080 ft 401 kts 119°
2026-04-27 13:50 24.60032 54.72221 11534 ft 402 kts 135°
2026-04-27 13:50 24.58083 54.74418 12032 ft 403 kts 136°
2026-04-27 13:51 24.56115 54.76618 12545 ft 404 kts 136°
2026-04-27 13:51 24.54136 54.78822 13065 ft 405 kts 136°
2026-04-27 13:51 24.52155 54.81021 13569 ft 406 kts 136°
2026-04-27 13:51 24.50165 54.83228 14006 ft 408 kts 136°
2026-04-27 13:52 24.48165 54.85447 14410 ft 410 kts 137°
2026-04-27 13:52 24.46148 54.87688 14815 ft 413 kts 137°
2026-04-27 13:52 24.44122 54.89937 15238 ft 416 kts 137°
2026-04-27 13:52 24.42087 54.92193 15645 ft 419 kts 137°
2026-04-27 13:53 24.37965 54.96770 16483 ft 424 kts 137°
2026-04-27 13:53 24.35910 54.99052 16895 ft 426 kts 137°
2026-04-27 13:53 24.33824 55.01367 17319 ft 429 kts 137°
2026-04-27 13:54 24.31720 55.03699 17743 ft 432 kts 137°
2026-04-27 13:54 24.29600 55.06049 18147 ft 434 kts 137°
2026-04-27 13:54 24.27468 55.08412 18499 ft 437 kts 137°
2026-04-27 13:54 24.25325 55.10786 18862 ft 439 kts 137°
2026-04-27 13:55 24.23167 55.13170 19218 ft 441 kts 137°
2026-04-27 13:55 24.20994 55.15565 19578 ft 443 kts 138°
2026-04-27 13:55 24.18815 55.17966 19926 ft 445 kts 137°
2026-04-27 13:55 24.16628 55.20375 20265 ft 447 kts 137°
2026-04-27 13:56 24.14425 55.22799 20601 ft 450 kts 137°
2026-04-27 13:56 24.12220 55.25228 20930 ft 452 kts 137°
2026-04-27 13:56 24.10002 55.27672 21253 ft 454 kts 137°
2026-04-27 13:56 24.07768 55.30130 21575 ft 456 kts 137°
2026-04-27 13:57 24.05498 55.32556 21883 ft 457 kts 142°
2026-04-27 13:57 24.02983 55.34668 22177 ft 456 kts 147°
2026-04-27 13:57 24.00387 55.36692 22488 ft 458 kts 148°
2026-04-27 13:57 23.97778 55.38715 22791 ft 460 kts 148°
2026-04-27 13:58 23.95184 55.40722 23095 ft 462 kts 148°
2026-04-27 13:58 23.92553 55.42757 23395 ft 465 kts 147°
2026-04-27 13:58 23.89816 55.44621 23636 ft 463 kts 157°
2026-04-27 13:58 23.86802 55.45939 23884 ft 460 kts 167°
2026-04-27 13:59 23.83716 55.46624 24125 ft 457 kts 178°
2026-04-27 13:59 23.80522 55.46700 24372 ft 453 kts 188°
2026-04-27 13:59 23.77458 55.46175 24604 ft 450 kts 198°
2026-04-27 13:59 23.74442 55.45280 24844 ft 451 kts 199°
2026-04-27 14:00 23.71407 55.44372 25092 ft 453 kts 199°
2026-04-27 14:00 23.68354 55.43465 25334 ft 454 kts 199°
2026-04-27 14:00 23.65293 55.42559 25571 ft 456 kts 199°
2026-04-27 14:00 23.62220 55.41650 25798 ft 458 kts 199°
2026-04-27 14:01 23.59137 55.40741 26028 ft 460 kts 199°
2026-04-27 14:01 23.56041 55.39829 26247 ft 462 kts 199°
2026-04-27 14:01 23.52942 55.38912 26459 ft 463 kts 199°
2026-04-27 14:01 23.49819 55.37989 26691 ft 465 kts 199°
2026-04-27 14:02 23.46692 55.37065 26917 ft 467 kts 199°
2026-04-27 14:02 23.43552 55.36136 27140 ft 468 kts 199°
2026-04-27 14:02 23.40393 55.35200 27382 ft 470 kts 199°
2026-04-27 14:02 23.37233 55.34263 27604 ft 472 kts 200°
2026-04-27 14:03 23.34098 55.33337 27926 ft 471 kts 200°
2026-04-27 14:03 23.30935 55.32405 28265 ft 470 kts 200°
2026-04-27 14:03 23.27784 55.31478 28582 ft 469 kts 200°
2026-04-27 14:03 23.24632 55.30549 28888 ft 469 kts 200°
2026-04-27 14:04 23.21488 55.29619 29195 ft 468 kts 200°
2026-04-27 14:04 23.18344 55.28692 29516 ft 468 kts 200°
2026-04-27 14:04 23.15202 55.27768 29821 ft 467 kts 200°
2026-04-27 14:04 23.12069 55.26849 30080 ft 466 kts 201°
2026-04-27 14:05 23.09062 55.25609 30305 ft 457 kts 213°
2026-04-27 14:05 23.06410 55.23765 30528 ft 449 kts 224°
2026-04-27 14:05 23.04198 55.21413 30746 ft 441 kts 235°
2026-04-27 14:05 23.02501 55.18674 30954 ft 435 kts 246°
2026-04-27 14:06 23.01343 55.15662 31176 ft 430 kts 256°
2026-04-27 14:06 23.00668 55.12521 31390 ft 428 kts 261°
2026-04-27 14:06 23.00057 55.09358 31612 ft 428 kts 260°
2026-04-27 14:06 22.99443 55.06236 31755 ft 428 kts 260°
2026-04-27 14:07 22.98819 55.03084 31788 ft 426 kts 260°
2026-04-27 14:07 22.97572 54.96815 31777 ft 425 kts 260°
2026-04-27 14:08 22.96316 54.90507 31778 ft 425 kts 260°
2026-04-27 14:08 22.95080 54.84288 31776 ft 424 kts 260°
2026-04-27 14:09 22.93831 54.78019 31774 ft 424 kts 260°
2026-04-27 14:09 22.92584 54.71758 31775 ft 425 kts 260°
2026-04-27 14:10 22.91334 54.65498 31780 ft 425 kts 260°
2026-04-27 14:10 22.90081 54.59231 31787 ft 425 kts 260°
2026-04-27 14:11 22.88827 54.52967 31795 ft 425 kts 260°
2026-04-27 14:11 22.87567 54.46701 31786 ft 425 kts 260°
2026-04-27 14:12 22.86303 54.40444 31789 ft 425 kts 260°
2026-04-27 14:12 22.85045 54.34183 31795 ft 424 kts 260°
2026-04-27 14:13 22.83782 54.27940 31787 ft 424 kts 260°
2026-04-27 14:13 22.82521 54.21695 31790 ft 424 kts 260°
2026-04-27 14:14 22.81256 54.15455 31793 ft 424 kts 260°
2026-04-27 14:14 22.79986 54.09222 31795 ft 424 kts 260°
2026-04-27 14:15 22.78706 54.02984 31800 ft 423 kts 260°
2026-04-27 14:15 22.78078 53.96737 31806 ft 419 kts 274°
2026-04-27 14:16 22.78314 53.90421 31794 ft 419 kts 273°
2026-04-27 14:16 22.78527 53.84107 31791 ft 419 kts 273°
2026-04-27 14:17 22.78737 53.77785 31796 ft 419 kts 273°
2026-04-27 14:17 22.78944 53.71471 31793 ft 419 kts 273°
2026-04-27 14:18 22.79146 53.65161 31798 ft 419 kts 273°
2026-04-27 14:18 22.79348 53.58843 31796 ft 419 kts 273°
2026-04-27 14:19 22.79545 53.52535 31789 ft 419 kts 273°
2026-04-27 14:19 22.79706 53.47280 31783 ft 419 kts 273°
2026-04-27 14:20 22.79896 53.40960 31783 ft 419 kts 273°
2026-04-27 14:20 22.80089 53.34650 31782 ft 419 kts 273°
2026-04-27 14:21 22.80287 53.28257 31784 ft 429 kts 273°
2026-04-27 14:21 22.80485 53.21740 31779 ft 437 kts 272°
2026-04-27 14:22 22.80672 53.15136 31789 ft 443 kts 272°
2026-04-27 14:22 22.80859 53.08440 31783 ft 444 kts 272°
2026-04-27 14:23 22.81048 53.01749 31782 ft 444 kts 272°
2026-04-27 14:23 22.81234 52.95056 31794 ft 444 kts 272°
2026-04-27 14:24 22.81421 52.88354 31796 ft 445 kts 272°
2026-04-27 14:24 22.81601 52.81641 31805 ft 445 kts 272°
2026-04-27 14:25 22.81783 52.74935 31804 ft 445 kts 272°
2026-04-27 14:25 22.81960 52.68228 31806 ft 445 kts 272°
2026-04-27 14:26 22.82136 52.61526 31804 ft 445 kts 272°
2026-04-27 14:26 22.82306 52.54825 31808 ft 445 kts 272°
2026-04-27 14:27 22.82924 52.48178 31807 ft 444 kts 285°
2026-04-27 14:27 22.85221 52.41949 31818 ft 445 kts 291°
2026-04-27 14:28 22.87668 52.35792 31818 ft 445 kts 291°
2026-04-27 14:28 22.90100 52.29624 31811 ft 444 kts 291°
2026-04-27 14:29 22.92514 52.23462 31802 ft 444 kts 291°
2026-04-27 14:29 22.94934 52.17291 31804 ft 444 kts 291°
2026-04-27 14:30 22.97336 52.11178 31811 ft 443 kts 291°
2026-04-27 14:30 22.99759 52.05022 31809 ft 443 kts 291°
2026-04-27 14:31 23.02168 51.98873 31817 ft 443 kts 291°
2026-04-27 14:31 23.04578 51.92715 31818 ft 443 kts 291°
2026-04-27 14:32 23.06983 51.86567 31812 ft 442 kts 291°
2026-04-27 14:32 23.09388 51.80412 31825 ft 442 kts 291°
2026-04-27 14:33 23.11778 51.74264 31816 ft 442 kts 291°
2026-04-27 14:33 23.14157 51.68131 31796 ft 440 kts 291°
2026-04-27 14:34 23.16537 51.62006 31795 ft 440 kts 291°
2026-04-27 14:34 23.18916 51.55882 31797 ft 439 kts 291°
2026-04-27 14:35 23.21277 51.49796 31801 ft 439 kts 291°
2026-04-27 14:35 23.23658 51.43637 31806 ft 440 kts 291°
2026-04-27 14:36 23.26033 51.37498 31817 ft 440 kts 290°
2026-04-27 14:36 23.28394 51.31393 31824 ft 441 kts 290°
2026-04-27 14:37 23.30767 51.25252 31829 ft 441 kts 290°
2026-04-27 14:37 23.33136 51.19108 31832 ft 440 kts 290°
2026-04-27 14:38 23.35514 51.12960 31830 ft 440 kts 291°
2026-04-27 14:38 23.37960 51.06848 31830 ft 440 kts 291°
2026-04-27 14:39 23.40416 51.00754 31828 ft 439 kts 291°
2026-04-27 14:39 23.41629 50.97731 32168 ft 431 kts 291°
2026-04-27 14:39 23.42833 50.94724 32122 ft 434 kts 291°
2026-04-27 14:39 23.44037 50.91708 31931 ft 435 kts 291°
2026-04-27 14:40 23.45239 50.88686 31799 ft 435 kts 291°
2026-04-27 14:40 23.47630 50.82650 31791 ft 434 kts 291°
2026-04-27 14:41 23.50031 50.76593 31792 ft 436 kts 291°
2026-04-27 14:41 23.52439 50.70525 31795 ft 437 kts 291°
2026-04-27 14:42 23.54830 50.64478 31815 ft 437 kts 291°
2026-04-27 14:42 23.57238 50.58383 31819 ft 438 kts 291°
2026-04-27 14:43 23.59644 50.52293 31826 ft 438 kts 290°
2026-04-27 14:43 23.62043 50.46192 31823 ft 438 kts 290°
2026-04-27 14:44 23.64449 50.40087 31826 ft 438 kts 290°
2026-04-27 14:44 23.66852 50.33994 31825 ft 438 kts 290°
2026-04-27 14:45 23.69253 50.27892 31823 ft 438 kts 290°
2026-04-27 14:45 23.71651 50.21781 31826 ft 438 kts 290°
2026-04-27 14:46 23.74042 50.15683 31826 ft 437 kts 290°
2026-04-27 14:46 23.76425 50.09571 31824 ft 437 kts 290°
2026-04-27 14:47 23.78796 50.03461 31822 ft 436 kts 290°
2026-04-27 14:47 23.81170 49.97360 31822 ft 437 kts 290°
2026-04-27 14:48 23.83553 49.91266 31816 ft 437 kts 290°
2026-04-27 14:48 23.87124 49.82103 31818 ft 437 kts 290°
2026-04-27 14:49 23.89478 49.76023 31823 ft 437 kts 290°
2026-04-27 14:49 23.91848 49.69904 31821 ft 436 kts 290°
2026-04-27 14:50 23.94214 49.63789 31820 ft 436 kts 290°
2026-04-27 14:50 23.96571 49.57693 31818 ft 436 kts 290°
2026-04-27 14:51 23.98927 49.51590 31822 ft 436 kts 289°
2026-04-27 14:51 24.00883 49.46515 31820 ft 435 kts 289°
2026-04-27 14:52 24.03632 49.39382 31790 ft 434 kts 289°
2026-04-27 14:52 24.05975 49.33293 31786 ft 433 kts 289°
2026-04-27 14:53 24.08304 49.27218 31789 ft 433 kts 289°
2026-04-27 14:53 24.10501 49.21146 31794 ft 430 kts 284°
2026-04-27 14:54 24.12194 49.14870 31794 ft 430 kts 284°
2026-04-27 14:54 24.13875 49.08593 31807 ft 430 kts 283°
2026-04-27 14:55 24.15556 49.02294 31811 ft 431 kts 284°
2026-04-27 14:55 24.17246 48.95999 31818 ft 431 kts 284°
2026-04-27 14:56 24.18349 48.89594 31816 ft 427 kts 269°
2026-04-27 14:56 24.17883 48.83102 31818 ft 427 kts 265°
2026-04-27 14:57 24.17363 48.76617 31819 ft 427 kts 265°
2026-04-27 14:57 24.16846 48.70134 31823 ft 427 kts 265°
2026-04-27 14:58 24.16319 48.63656 31827 ft 427 kts 265°
2026-04-27 14:58 24.15788 48.57174 31830 ft 427 kts 265°
2026-04-27 14:59 24.15259 48.50736 31836 ft 427 kts 265°
2026-04-27 14:59 24.14725 48.44262 31835 ft 426 kts 265°
2026-04-27 15:00 24.14195 48.37795 31837 ft 426 kts 265°
2026-04-27 15:00 24.13663 48.31335 31836 ft 425 kts 265°
2026-04-27 15:01 24.13121 48.24892 31836 ft 425 kts 265°
2026-04-27 15:01 24.12577 48.18441 31841 ft 425 kts 265°
2026-04-27 15:02 24.12038 48.11995 31847 ft 425 kts 265°
2026-04-27 15:02 24.11492 48.05548 31839 ft 425 kts 265°
2026-04-27 15:03 24.10938 47.99118 31826 ft 424 kts 265°
2026-04-27 15:03 24.10382 47.92694 31830 ft 423 kts 265°
2026-04-27 15:04 24.09839 47.86316 31843 ft 423 kts 265°
2026-04-27 15:04 24.09287 47.79907 31855 ft 423 kts 264°
2026-04-27 15:05 24.08727 47.73493 31872 ft 423 kts 265°
2026-04-27 15:05 24.08171 47.67067 31891 ft 424 kts 264°
2026-04-27 15:06 24.07698 47.61725 31895 ft 424 kts 264°
2026-04-27 15:06 24.07192 47.55289 31896 ft 424 kts 266°
2026-04-27 15:07 24.06989 47.48837 31901 ft 425 kts 268°
2026-04-27 15:07 24.06867 47.42369 31894 ft 425 kts 268°
2026-04-27 15:08 24.07504 47.35947 31885 ft 426 kts 277°
2026-04-27 15:08 24.08380 47.29534 31880 ft 426 kts 276°
2026-04-27 15:09 24.09245 47.23117 31868 ft 425 kts 276°
2026-04-27 15:09 24.09677 47.19931 31268 ft 422 kts 276°
2026-04-27 15:09 24.10106 47.16762 30802 ft 422 kts 276°
2026-04-27 15:10 24.10537 47.13570 30333 ft 427 kts 276°
2026-04-27 15:10 24.11261 47.10449 29683 ft 430 kts 287°
2026-04-27 15:10 24.12617 47.07480 29053 ft 433 kts 298°
2026-04-27 15:10 24.14498 47.04899 28537 ft 436 kts 309°
2026-04-27 15:11 24.16009 47.03429 28190 ft 438 kts 315°
2026-04-27 15:11 24.19159 47.00717 27532 ft 432 kts 315°
2026-04-27 15:11 24.21507 46.98696 27026 ft 426 kts 315°
2026-04-27 15:11 24.23830 46.96697 26540 ft 423 kts 315°
2026-04-27 15:12 24.26136 46.94709 26058 ft 420 kts 315°
2026-04-27 15:12 24.28428 46.92728 25592 ft 418 kts 315°
2026-04-27 15:12 24.30702 46.90759 25129 ft 416 kts 315°
2026-04-27 15:12 24.32968 46.88799 24667 ft 414 kts 315°
2026-04-27 15:13 24.35223 46.86851 24234 ft 413 kts 315°
2026-04-27 15:13 24.37479 46.84902 23783 ft 411 kts 316°
2026-04-27 15:13 24.39719 46.82965 23331 ft 410 kts 316°
2026-04-27 15:13 24.41955 46.81030 22805 ft 408 kts 316°
2026-04-27 15:14 24.44174 46.79108 22296 ft 406 kts 316°
2026-04-27 15:14 24.46386 46.77190 21765 ft 404 kts 316°
2026-04-27 15:14 24.48588 46.75278 21246 ft 402 kts 316°
2026-04-27 15:14 24.50779 46.73377 20734 ft 401 kts 316°
2026-04-27 15:15 24.52961 46.71483 20232 ft 399 kts 317°
2026-04-27 15:15 24.55131 46.69598 19739 ft 398 kts 317°
2026-04-27 15:15 24.57301 46.67714 19255 ft 397 kts 317°
2026-04-27 15:15 24.59464 46.65837 18771 ft 395 kts 317°
2026-04-27 15:16 24.61618 46.63966 18308 ft 393 kts 317°
2026-04-27 15:16 24.63729 46.62131 17787 ft 391 kts 317°
2026-04-27 15:16 24.65858 46.60279 17249 ft 389 kts 317°
2026-04-27 15:16 24.68028 46.58508 16724 ft 390 kts 323°
2026-04-27 15:17 24.70448 46.57148 16200 ft 391 kts 331°